Flag for Switzerland Weather past 2 weeks in Einsiedeln, Schwyz, Switzerland

Now
51 °F

Cool.


Feels Like: 43 °F
Forecast: 31 / 35 °F
Wind: 28 mph from North

Location: Altdorf

Current Time: Mar 31, 2015 at 8:28:11 PM

Latest Report: Mar 31, 2015 at 7:00 PM


Visibility: N/A

Pressure: 29.89 "Hg

Humidity: 74%

Dew point: 43 °F

Location of EinsiedelnLocation

Historic Weather in Einsiedeln — Graph

°F

Einsiedeln temperature yesterday

Maximum temperature yesterday: 57 °F (at 2:00 PM)
Minimum temperature yesterday: 47 °F (at 6:00 AM)
Average temperature yesterday: 50 °F

Past Weeks' High & Low Weather Summary

 TemperatureHumidityPressure
High68 °F (Mar 31, 1:00 PM)96% (Mar 29, 4:00 AM)30.33 "Hg (Mar 29, 4:00 AM)
Low33 °F (Mar 28, 7:00 AM)30% (Mar 31, 12:00 PM)29.58 "Hg (Mar 25, 2:00 PM)
Average48 °F71%30.01 "Hg
* Reported Mar 16 6:00 PM — Mar 31 7:00 PM, Einsiedeln, Weather by CustomWeather, © 2015

Note: Actual official high and low records may vary slightly from our data, if they occured in-between our weather recording intervals... More about our weather records

Advertising

Einsiedeln weather history for previous 24 hours

 ConditionsComfort  
Time TempWeatherWind HumidityBarometerVisibility
7:00 PM
Tue, Mar 31
51 °FCool.28 mph74%29.89 "HgN/A
6:00 PM52 °FCool.30 mph72%29.85 "HgN/A
5:00 PM60 °FLight rain. Overcast.14 mph41%29.80 "Hg5 mi
4:00 PM61 °FRefreshingly cool.24 mph41%29.79 "HgN/A
3:00 PM63 °FMild.22 mph35%29.78 "HgN/A
2:00 PM64 °FOvercast.22 mph36%29.77 "Hg16 mi
1:00 PM68 °FMild.21 mph33%29.72 "HgN/A
12:00 PM67 °FMild.21 mph30%29.74 "HgN/A
11:00 AM57 °FPartly sunny.3 mph68%29.76 "Hg9 mi
10:00 AM60 °FRefreshingly cool.6 mph46%29.77 "HgN/A
9:00 AM50 °FCool.7 mph85%29.82 "HgN/A
8:00 AM43 °FPartly sunny.2 mph93%29.85 "Hg9 mi
7:00 AM45 °FCool.3 mph91%29.88 "HgN/A
6:00 AM44 °FQuite cool.1 mph91%29.91 "HgN/A
5:00 AM45 °FLight rain. Overcast.3 mph90%29.94 "Hg5 mi
4:00 AM44 °FQuite cool.8 mph88%29.98 "HgN/A
3:00 AM44 °FQuite cool.12 mph88%30.03 "HgN/A
2:00 AM44 °FRain. Overcast.10 mph89%30.05 "Hg5 mi
1:00 AM45 °FCool.13 mph90%30.06 "HgN/A
12:00 AM46 °FCool.3 mph87%30.05 "HgN/A
11:00 PM
Mon, Mar 30
47 °FRain. Overcast.6 mph79%30.03 "Hg5 mi
10:00 PM50 °FCool.13 mph64%30.01 "HgN/A
9:00 PM50 °FCool.21 mph72%29.96 "HgN/A
8:00 PM53 °FLight rain. Overcast.21 mph57%29.92 "Hg5 mi
Weather by CustomWeather, © 2015

See weather overviewHow to use our weather pages